Location: Ar Ranvel
(48.3000°N, 4.8833°W)
Time: 22:47:35
(UTC+00:00)

FALCON 9 DEB - Pass Details

Date: 30 October 2021
Orbit: 417 x 427 km, 53.0° (Epoch: 28 November)

Event Time Altitude Azimuth Distance (km) Brightness Sun altitude
Rises 20:09:28 0° 278° (W) 2,397 8.0 -31.3°
Reaches altitude 10° 20:11:41 10° 287° (WNW) 1,530 6.8 -31.6°
Enters shadow 20:12:05 13° 289° (WNW) 1,385 6.5 -31.7°
